Overview Statistics Trail Chart Weather Telemetry Raw packets
 

This is the latest recevied weather packets stored in our database for station/object PA3DZX-13. If no packets are shown the sender has not sent any weather packets the latest 10 day(s).

<< 26 27 28 29 30 31 32 >>
Time Temp. Humidity Pressure Rain* Wind** Luminosity Snow
1787998868 20.56° C 59% 1010.4 hPa 0 mm - - -
1787997968 20° C 66% 1010.4 hPa 0 mm - - -
1787997067 20° C 66% 1010.4 hPa 3.3 mm - - -
1787996167 20° C 66% 1010.5 hPa 0 mm - - -
1787995266 20° C 66% 1010.3 hPa 0.76 mm - - -
1787994366 18.89° C 67% 1010.1 hPa 0 mm - - -
1787993465 20° C 68% 1010.2 hPa 0 mm - - -
1787992566 18.89° C 69% 1010.1 hPa 0 mm - - -
1787991664 17.78° C 73% 1010 hPa 0 mm - - -
1787990764 17.78° C 71% 1009.8 hPa 0 mm - - -
1787989863 16.67° C 74% 1009.7 hPa 1.78 mm - - -
1787988963 16.67° C 76% 1009.7 hPa 0 mm - - -
1787988062 16.67° C 77% 1009.7 hPa 0 mm - - -
1787987162 16.67° C 76% 1009.5 hPa 0 mm - - -
1787986261 15.56° C 78% 1009.5 hPa 0 mm - - -
1787985361 15.56° C 78% 1009.3 hPa 0 mm - - -
1787984460 15.56° C 80% 1009.3 hPa 0 mm - - -
1787983560 15.56° C 81% 1009.3 hPa 0 mm - - -
1787982659 15° C 81% 1009.2 hPa 2.29 mm - - -
1787981760 15° C 82% 1009.2 hPa 1.78 mm - - -
1787980859 15° C 82% 1009.2 hPa 0.25 mm - - -
1787979959 15° C 83% 1009.2 hPa 0 mm - - -
1787979058 15° C 83% 1009.2 hPa 0 mm - - -
1787978158 15° C 82% 1009.3 hPa 0 mm - - -
1787977258 15° C 83% 1009.4 hPa 0 mm - - -

* Rain latest hour (hover to see other rain measurements)
** Current wind speed in m/s (hover to see current wind gust speed)